Weather History for Salisbury, MD

Change the Weather History Date:

Wednesday, October 3, 2012

  Actual Average Record
Temperature  
Mean Temperature 81 °F 62 °F  
Max Temperature 87 °F 73 °F 91 °F (1926)
Min Temperature 75 °F 51 °F 33 °F (2003)
Degree Days  
Heating Degree Days 0 5  
Month to date heating degree days 3 14  
Since 1 July heating degree days 22 62  
Cooling Degree Days 16 2  
Month to date cooling degree days 27 6  
Year to date cooling degree days 1689 1131  
Growing Degree Days 30 (Base 50)    
Moisture  
Dew Point 72 °F    
Average Humidity 75    
Maximum Humidity 94    
Minimum Humidity 55    
Precipitation  
Precipitation 0.00 in 0.11 in 0.97 in (1979)
Month to date precipitation 0.21 0.34  
Year to date precipitation 30.51 35.39  
Snow  
Snow 0.00 in 0.00 in 0.00 in (2002)
Month to date snowfall 0.0 0.0  
Since 1 July snowfall 0.0 0.0  
Snow Depth 0.00 in    
Sea Level Pressure  
Sea Level Pressure 30.05 in    
Wind  
Wind Speed 4 mph (SW)    
Max Wind Speed 12 mph    
Max Gust Speed 15 mph    
Visibility 8 miles    
Events      
T = Trace of Precipitation, MM = Missing Value Source: NWS Daily Summary

Daily Weather History Graph

Daily Weather History Graph

Search for Another Location

Airport:

Trip Planner

Search our weather history database for the weather conditions in past years. The results will help you decide how hot, cold, wet, or windy it might be!

Date:

Astronomy

Oct. 03, 2012 Rise Set
Actual Time 7:00 AM EDT 6:41 PM EDT
Civil Twilight 6:33 AM EDT 7:07 PM EDT
Nautical Twilight 6:03 AM EDT 7:38 PM EDT
Astronomical Twilight 5:32 AM EDT 8:08 PM EDT
Moon 8:35 PM EDT (10/3) 10:17 AM EDT (10/3)
Length of Visible Light 12h 33m
Length of Day
11h 41m
Waning Gibbous, 89% of the Moon is Illuminated
Oct 3
Waning Gibbous
Oct 8
Last Quarter
Oct 15
New
Oct 21
First Quarter
Oct 29
Full

Hourly Weather History & Observations

Time (EDT) Temp. Heat Index Dew Point Humidity Pressure Visibility Wind Dir Wind Speed Gust Speed Precip Events Conditions
12:08 AM 75.2 °F - 71.6 °F 89% 29.95 in 6.0 mi South 4.6 mph - N/A   Scattered Clouds
12:54 AM 75.9 °F - 72.0 °F 87% 29.97 in 6.0 mi South 5.8 mph - N/A   Mostly Cloudy
1:02 AM 75.2 °F - 71.6 °F 89% 29.96 in 6.0 mi SSW 4.6 mph - N/A   Mostly Cloudy
1:07 AM 75.2 °F - 71.6 °F 89% 29.96 in 7.0 mi SSW 5.8 mph - N/A   Scattered Clouds
1:19 AM 75.2 °F - 73.4 °F 94% 29.97 in 7.0 mi SSW 4.6 mph - N/A   Mostly Cloudy
1:54 AM 75.9 °F - 73.0 °F 91% 29.98 in 8.0 mi South 4.6 mph - N/A   Mostly Cloudy
2:54 AM 75.9 °F - 73.0 °F 91% 29.99 in 6.0 mi SSW 4.6 mph - N/A   Overcast
3:54 AM 75.9 °F - 73.0 °F 91% 30.00 in 6.0 mi South 5.8 mph - N/A   Overcast
4:42 AM 77.0 °F - 73.4 °F 89% 30.00 in 7.0 mi SSW 5.8 mph - N/A   Overcast
4:54 AM 77.0 °F - 73.9 °F 90% 30.01 in 8.0 mi SSW 6.9 mph - N/A   Overcast
5:17 AM 77.0 °F - 73.4 °F 89% 30.01 in 8.0 mi SSW 4.6 mph - N/A   Overcast
5:54 AM 77.0 °F - 73.9 °F 90% 30.03 in 8.0 mi SSW 4.6 mph - N/A   Overcast
6:54 AM 75.9 °F - 73.0 °F 91% 30.04 in 7.0 mi SSW 4.6 mph - N/A   Mostly Cloudy
7:54 AM 77.0 °F - 73.0 °F 88% 30.06 in 5.0 mi South 4.6 mph - N/A   Mostly Cloudy
8:11 AM 77.0 °F - 73.4 °F 89% 30.05 in 6.0 mi SSW 3.5 mph - N/A   Mostly Cloudy
8:20 AM 77.0 °F - 73.4 °F 89% 30.06 in 6.0 mi SW 3.5 mph - N/A   Overcast
8:31 AM 78.8 °F - 73.4 °F 83% 30.06 in 7.0 mi SSW 4.6 mph - N/A   Overcast
8:50 AM 78.8 °F - 73.4 °F 83% 30.07 in 8.0 mi SW 6.9 mph - N/A   Overcast
8:54 AM 78.1 °F - 73.9 °F 87% 30.08 in 9.0 mi WSW 6.9 mph - N/A   Overcast
9:19 AM 80.6 °F 85.4 °F 73.4 °F 79% 30.06 in 10.0 mi WSW 6.9 mph - N/A   Scattered Clouds
9:47 AM 80.6 °F 85.4 °F 73.4 °F 79% 30.07 in 10.0 mi West 8.1 mph - N/A   Mostly Cloudy
9:54 AM 81.0 °F 86.2 °F 73.9 °F 79% 30.09 in 10.0 mi West 6.9 mph - N/A   Mostly Cloudy
10:24 AM 82.4 °F 88.2 °F 73.4 °F 74% 30.08 in 10.0 mi West 8.1 mph - N/A   Scattered Clouds
11:54 AM 84.0 °F 89.0 °F 71.1 °F 65% 30.09 in 10.0 mi SW 5.8 mph - N/A   Clear
12:54 PM 84.9 °F 90.7 °F 72.0 °F 65% 30.08 in 10.0 mi SW 8.1 mph - N/A   Partly Cloudy
1:54 PM 86.0 °F 90.7 °F 70.0 °F 59% 30.08 in 10.0 mi SSW 5.8 mph - N/A   Clear
2:54 PM 84.9 °F 87.6 °F 66.9 °F 55% 30.07 in 10.0 mi WSW 8.1 mph - N/A   Clear
3:54 PM 84.0 °F 87.0 °F 68.0 °F 58% 30.08 in 10.0 mi WSW 8.1 mph - N/A   Clear
4:54 PM 82.9 °F 87.0 °F 70.0 °F 65% 30.08 in 10.0 mi SSW 4.6 mph - N/A   Clear
5:54 PM 81.0 °F 84.9 °F 71.1 °F 72% 30.09 in 10.0 mi Calm Calm - N/A   Clear
6:54 PM 78.1 °F - 72.0 °F 81% 30.10 in 10.0 mi Calm Calm - N/A   Clear
7:54 PM 77.0 °F - 72.0 °F 84% 30.11 in 10.0 mi Calm Calm - N/A   Clear
8:54 PM 77.0 °F - 72.0 °F 84% 30.12 in 9.0 mi Calm Calm - N/A   Clear
9:54 PM 75.9 °F - 72.0 °F 87% 30.13 in 7.0 mi Calm Calm - N/A   Clear
10:54 PM 75.9 °F - 72.0 °F 87% 30.14 in 7.0 mi Calm Calm - N/A   Clear
11:54 PM 75.0 °F - 71.1 °F 87% 30.13 in 6.0 mi East 3.5 mph - N/A   Clear